"startDT [UTC]","vpos","CH4 [ppm]","stdev(CH4) [ppm]","CO2 [ppm]","stdev(CO2) [ppm]","H2O_reported [%]","stdev(H2O_reported)","CavityPressure [torr]","CavityTemp [C]","OutletValve","CH4_dry [ppm]","CO2_dry [ppm]","DasTemp [C]","EtalonTemp [C]","WarmBoxTemp [C]","MPVPosition","T_ECpre [C]","T_EC1 [C]","T_EC2 [C]","p_inlet [hPa]","p_in [hPa]","p_out [hPa]","T_inlet [C]","RH_inlet [%]","dwpt_inlet [C]","T_vent [C]","RH_vent [%]","dwpt_vent [C]","flow_vent [l min-1]","flow_inlet [l min-1]","dwpt_sample [C]","T_room [C]"
2015-09-12 00:00:00,0.0,1.92337,0.00093,392.467,0.041,1.1090,0.0039,140.001,45.000,31459.80576,1.94515,397.893,34.625,45.068,45.000,0.00,0.09,-272.74,-272.80,-11,513,-921,21.6,33.4,4.8,21.7,33.7,5.0,5.73,2.08,0.5,27.0
2015-09-12 00:01:00,0.0,1.92413,0.00073,392.510,0.068,1.1073,0.0050,140.000,45.000,31459.11717,1.94576,397.926,34.625,45.068,45.000,0.00,0.10,-272.73,-272.80,-9,513,-921,21.6,33.3,4.8,21.7,33.8,5.1,5.73,1.69,0.5,27.0
2015-09-12 00:02:00,0.0,1.92504,0.00072,392.562,0.055,1.1067,0.0047,140.000,45.000,31457.31591,1.94676,397.977,34.627,45.068,45.000,0.00,0.09,-272.76,-272.80,-10,513,-921,21.6,33.3,4.8,21.7,33.7,5.0,5.73,2.07,0.6,27.0
2015-09-12 00:03:00,0.0,1.92460,0.00045,392.476,0.051,1.1128,0.0054,140.002,45.000,31456.59519,1.94647,397.922,34.625,45.068,45.000,0.00,0.09,-272.74,-272.80,-10,513,-921,21.6,33.4,4.8,21.7,33.8,5.1,5.73,1.73,0.6,27.0
2015-09-12 00:04:00,0.0,1.92574,0.00094,392.490,0.054,1.1108,0.0074,139.998,45.000,31458.20365,1.94750,397.927,34.623,45.068,45.000,0.00,0.09,-272.75,-272.79,-9,513,-921,21.7,33.4,4.9,21.7,33.8,5.1,5.73,2.00,0.5,27.0
2015-09-12 00:05:00,0.0,1.92673,0.00093,392.441,0.029,1.1175,0.0047,140.000,45.000,31460.17524,1.94865,397.909,34.623,45.068,45.000,0.00,0.09,-272.74,-272.81,-11,513,-921,21.6,33.6,4.9,21.7,33.9,5.1,5.73,1.81,0.6,27.0
2015-09-12 00:06:00,0.0,1.92623,0.00088,392.373,0.069,1.1302,0.0058,139.999,45.000,31457.10423,1.94850,397.906,34.624,45.068,45.000,0.00,0.09,-272.75,-272.81,-9,513,-921,21.6,34.0,5.1,21.7,34.3,5.3,5.73,1.90,0.6,27.0
2015-09-12 00:07:00,0.0,1.92544,0.00206,392.326,0.103,1.1247,0.0072,140.000,45.000,31455.16949,1.94772,397.837,34.617,45.068,45.000,0.00,0.09,-272.73,-272.81,-10,513,-921,21.6,33.7,5.0,21.7,34.3,5.3,5.73,1.93,0.5,27.0
2015-09-12 00:08:00,0.0,1.92351,0.00196,392.191,0.039,1.1052,0.0076,139.999,45.000,31456.09302,1.94511,397.594,34.619,45.068,45.000,0.00,0.10,-272.74,-272.80,-10,513,-921,21.6,33.2,4.7,21.7,33.8,5.1,5.73,1.80,0.6,27.0
2015-09-12 00:09:00,0.0,1.92155,0.00082,392.222,0.061,1.0997,0.0067,140.000,45.000,31456.38090,1.94315,397.597,34.624,45.068,45.000,0.00,0.09,-272.75,-272.81,-9,513,-921,21.6,32.9,4.6,21.8,33.5,5.0,5.73,2.00,0.6,27.0
2015-09-12 00:10:00,0.0,1.92292,0.00088,392.356,0.036,1.0942,0.0032,140.000,45.000,31455.67608,1.94425,397.705,34.651,45.068,45.000,0.00,0.10,-272.74,-272.80,-11,513,-921,21.7,32.9,4.6,21.8,33.3,4.9,5.73,1.76,0.6,27.0
2015-09-12 00:11:00,0.0,1.92316,0.00127,392.210,0.095,1.1093,0.0102,140.002,45.000,31459.35846,1.94509,397.636,34.691,45.068,45.000,0.00,0.09,-272.75,-272.80,-9,513,-921,21.6,33.2,4.7,21.8,33.7,5.1,5.73,2.02,0.6,27.1
2015-09-12 00:12:00,0.0,1.92190,0.00108,392.275,0.039,1.0948,0.0024,139.997,45.001,31460.93385,1.94327,397.624,34.746,45.069,45.001,0.00,0.10,-272.75,-272.80,-10,513,-921,21.6,32.9,4.6,21.7,33.3,4.9,5.73,1.76,0.6,27.1
2015-09-12 00:13:00,0.0,1.92315,0.00190,392.230,0.036,1.1025,0.0038,140.000,45.001,31464.72994,1.94479,397.619,34.751,45.069,45.001,0.00,0.09,-272.75,-272.81,-10,513,-921,21.6,33.1,4.7,21.7,33.4,4.9,5.73,2.02,0.6,27.0
2015-09-12 00:14:00,0.0,1.92358,0.00100,392.243,0.035,1.1086,0.0050,139.998,45.001,31463.85473,1.94522,397.663,34.762,45.069,45.000,0.00,0.10,-272.74,-272.80,-9,513,-921,21.6,33.4,4.8,21.8,33.6,5.0,5.73,1.73,0.6,27.1
2015-09-12 00:15:00,0.0,1.92342,0.00088,392.266,0.064,1.1056,0.0079,140.003,45.000,31467.78312,1.94512,397.672,34.758,45.068,45.000,0.00,0.09,-272.75,-272.80,-11,513,-921,21.7,33.2,4.7,21.8,33.7,5.1,5.73,2.06,0.6,27.1
2015-09-12 00:16:00,0.0,1.92362,0.00103,392.217,0.043,1.1094,0.0044,140.001,45.000,31465.95800,1.94538,397.642,34.733,45.068,45.000,0.00,0.09,-272.74,-272.80,-9,513,-921,21.7,33.2,4.8,21.8,33.7,5.1,5.73,1.69,0.6,27.1
2015-09-12 00:17:00,0.0,1.92268,0.00092,392.222,0.039,1.1049,0.0043,140.001,45.000,31465.11750,1.94439,397.624,34.691,45.068,45.000,0.00,0.09,-272.75,-272.80,-11,513,-921,21.7,33.0,4.7,21.8,33.6,5.0,5.73,2.08,0.6,27.1
2015-09-12 00:18:00,0.0,1.92501,0.00149,392.184,0.046,1.1112,0.0050,139.999,44.999,31461.13623,1.94677,397.618,34.658,45.068,45.000,0.00,0.10,-272.74,-272.80,-10,513,-921,21.7,33.2,4.8,21.8,33.6,5.1,5.73,1.72,0.6,27.1
2015-09-12 00:19:00,0.0,1.91866,0.00505,391.788,0.146,1.0986,0.0117,140.001,44.999,31459.90063,1.94044,397.161,34.625,45.068,45.000,0.00,0.09,-272.75,-272.81,-9,513,-921,21.7,32.6,4.6,21.8,33.5,5.0,5.73,1.99,0.6,27.1
2015-09-12 00:20:00,0.0,1.91747,0.00104,391.826,0.035,1.0930,0.0035,140.001,45.000,31459.12664,1.93872,397.159,34.625,45.068,45.000,0.00,0.10,-272.74,-272.81,-11,513,-921,21.8,32.5,4.6,21.8,33.1,4.8,5.73,1.84,0.6,27.1
2015-09-12 00:21:00,0.0,1.91870,0.00112,391.830,0.070,1.0998,0.0044,139.998,45.000,31456.92813,1.94017,397.200,34.623,45.068,45.000,0.00,0.10,-272.74,-272.80,-9,513,-921,21.8,32.7,4.7,21.8,33.3,4.9,5.73,1.87,0.6,27.1
2015-09-12 00:22:00,0.0,1.91770,0.00109,391.634,0.132,1.1124,0.0086,139.998,45.000,31456.53438,1.93959,397.069,34.625,45.068,45.000,0.00,0.09,-272.74,-272.81,-11,513,-923,21.8,33.1,4.9,21.8,33.6,5.0,5.73,1.94,0.6,27.1
2015-09-12 00:23:00,0.0,1.91899,0.00096,391.795,0.117,1.1086,0.0057,140.001,45.000,31456.71645,1.94058,397.205,34.625,45.068,45.000,0.00,0.10,-272.74,-272.80,-10,514,-921,21.8,32.9,4.8,21.8,33.6,5.1,5.73,1.78,0.6,27.1
2015-09-12 00:24:00,0.0,1.92089,0.00067,391.967,0.029,1.1006,0.0024,139.999,45.000,31455.62159,1.94242,397.343,34.625,45.068,45.000,0.00,0.09,-272.74,-272.80,-9,513,-923,21.8,32.7,4.7,21.8,33.3,5.0,5.73,2.03,0.6,27.1
2015-09-12 00:25:00,0.0,1.92109,0.00064,391.935,0.037,1.1034,0.0020,140.000,45.000,31456.32129,1.94270,397.324,34.625,45.068,45.000,0.00,0.10,-272.75,-272.80,-13,514,-922,21.8,32.8,4.7,21.8,33.3,5.0,5.73,1.71,0.6,27.1
2015-09-12 00:26:00,0.0,1.92223,0.00064,391.943,0.060,1.1065,0.0032,140.001,45.000,31456.67889,1.94388,397.350,34.625,45.068,45.000,0.00,0.09,-272.75,-272.81,-10,510,-919,21.8,32.9,4.8,21.8,33.4,5.0,5.73,2.07,0.6,27.1
2015-09-12 00:27:00,0.0,1.92326,0.00052,391.834,0.089,1.1180,0.0066,139.999,45.000,31455.45785,1.94521,397.297,34.625,45.068,45.000,0.00,0.10,-272.74,-272.80,-11,515,-919,21.8,33.3,4.9,21.8,33.7,5.1,5.73,1.69,0.6,27.1
2015-09-12 00:28:00,0.0,1.92149,0.00116,391.883,0.065,1.1124,0.0051,140.000,45.000,31456.69879,1.94336,397.318,34.624,45.068,45.000,0.00,0.09,-272.75,-272.80,-8,512,-921,21.8,33.0,4.8,21.9,33.7,5.2,5.73,2.07,0.7,27.1
2015-09-12 00:29:00,0.0,1.92067,0.00051,391.904,0.044,1.1070,0.0028,139.999,45.000,31457.58420,1.94232,397.314,34.625,45.068,45.000,0.00,0.09,-272.74,-272.81,-9,514,-920,21.8,32.9,4.8,21.9,33.4,5.0,5.73,1.70,0.6,27.1
2015-09-12 00:30:00,0.0,1.92156,0.00056,391.820,0.039,1.1127,0.0025,139.999,45.000,31455.79656,1.94337,397.256,34.643,45.068,45.000,0.00,0.09,-272.75,-272.80,-11,514,-920,21.8,33.1,4.8,21.9,33.6,5.1,5.73,2.06,0.7,27.1
2015-09-12 00:31:00,0.0,1.92121,0.00049,391.777,0.040,1.1129,0.0042,140.002,45.000,31458.62417,1.94304,397.213,34.681,45.068,45.000,0.00,0.10,-272.73,-272.80,-7,509,-921,21.8,33.0,4.8,21.9,33.6,5.1,5.73,1.71,0.6,27.1
2015-09-12 00:32:00,0.0,1.92063,0.00091,391.811,0.029,1.1080,0.0034,140.000,45.000,31460.83393,1.94229,397.223,34.688,45.068,45.000,0.00,0.09,-272.75,-272.80,-10,509,-920,21.8,32.9,4.8,21.9,33.4,5.0,5.73,2.03,0.7,27.1
2015-09-12 00:33:00,0.0,1.92181,0.00043,391.718,0.086,1.1148,0.0043,140.001,45.000,31460.98828,1.94364,397.163,34.700,45.068,45.000,0.00,0.09,-272.74,-272.81,-10,515,-920,21.8,33.1,4.9,21.8,33.6,5.1,5.73,1.76,0.7,27.1
2015-09-12 00:34:00,0.0,1.92180,0.00054,391.782,0.028,1.1140,0.0019,140.000,45.000,31461.86294,1.94368,397.224,34.712,45.068,45.000,0.00,0.10,-272.74,-272.80,-10,514,-921,21.8,33.1,4.8,21.9,33.6,5.1,5.73,1.97,0.7,27.1
2015-09-12 00:35:00,0.0,1.92178,0.00040,391.782,0.033,1.1149,0.0018,140.001,45.000,31461.27449,1.94363,397.227,34.711,45.068,44.999,0.00,0.10,-272.74,-272.81,-10,513,-920,21.8,33.0,4.8,21.9,33.6,5.1,5.73,1.85,0.7,27.1
2015-09-12 00:36:00,0.0,1.92222,0.00056,391.716,0.048,1.1180,0.0043,140.000,45.000,31459.63803,1.94409,397.178,34.695,45.068,44.999,0.00,0.09,-272.75,-272.81,-9,513,-920,21.9,33.2,4.9,21.9,33.6,5.1,5.73,1.85,0.7,27.1
2015-09-12 00:37:00,0.0,1.92027,0.00117,391.548,0.059,1.1254,0.0020,140.000,45.000,31457.35225,1.94246,397.046,34.691,45.068,44.999,0.00,0.09,-272.74,-272.80,-11,514,-920,21.9,33.3,5.0,21.9,33.8,5.2,5.73,1.96,0.7,27.1
2015-09-12 00:38:00,0.0,1.91905,0.00050,391.613,0.061,1.1168,0.0035,140.001,45.000,31456.66927,1.94092,397.068,34.684,45.068,44.999,0.00,0.10,-272.74,-272.80,-9,514,-920,21.9,33.1,4.9,21.9,33.7,5.2,5.73,1.76,0.7,27.2
2015-09-12 00:39:00,0.0,1.91948,0.00075,391.572,0.050,1.1190,0.0043,140.000,45.000,31454.74110,1.94136,397.036,34.632,45.068,45.000,0.00,0.09,-272.75,-272.81,-10,513,-920,21.8,33.1,4.9,21.9,33.6,5.2,5.73,2.04,0.7,27.1
2015-09-12 00:40:00,0.0,1.91810,0.00142,391.328,0.079,1.1279,0.0042,140.000,45.000,31455.42906,1.94033,396.840,34.625,45.068,45.000,0.00,0.10,-272.75,-272.80,-11,514,-920,21.9,33.4,5.0,21.9,33.9,5.3,5.73,1.69,0.7,27.2
2015-09-12 00:41:00,0.0,1.91709,0.00110,391.248,0.070,1.1254,0.0064,140.001,45.000,31455.05321,1.93900,396.738,34.628,45.068,45.000,0.00,0.10,-272.74,-272.80,-9,514,-920,21.9,33.3,5.0,21.9,33.8,5.3,5.73,2.08,0.7,27.2
2015-09-12 00:42:00,0.0,1.91460,0.00220,391.024,0.148,1.1228,0.0046,139.999,45.000,31455.02274,1.93673,396.508,34.625,45.068,45.000,0.00,0.10,-272.74,-272.80,-11,514,-920,21.9,33.2,5.0,21.9,33.8,5.3,5.73,1.69,0.7,27.2
2015-09-12 00:43:00,0.0,1.91462,0.00122,390.805,0.089,1.1303,0.0089,140.001,45.000,31455.73563,1.93662,396.319,34.625,45.068,45.000,0.00,0.09,-272.75,-272.81,-10,514,-920,21.9,33.4,5.1,21.9,33.9,5.3,5.73,2.06,0.7,27.2
2015-09-12 00:44:00,0.0,1.91610,0.00173,390.859,0.078,1.1325,0.0032,140.000,45.000,31456.73676,1.93836,396.377,34.625,45.068,45.000,0.00,0.09,-272.74,-272.80,-10,514,-920,21.9,33.5,5.1,22.0,34.0,5.4,5.73,1.72,0.7,27.2
2015-09-12 00:45:00,0.0,1.91435,0.00135,391.023,0.041,1.1236,0.0045,139.998,45.000,31455.44512,1.93632,396.503,34.630,45.068,45.000,0.00,0.09,-272.74,-272.80,-11,514,-920,21.9,33.2,5.0,21.9,33.8,5.3,5.73,2.00,0.7,27.2
2015-09-12 00:46:00,0.0,1.91393,0.00140,391.138,0.069,1.1148,0.0044,139.998,45.000,31457.49267,1.93557,396.573,34.640,45.068,45.000,0.00,0.09,-272.74,-272.81,-9,514,-920,21.9,32.9,4.9,22.0,33.6,5.2,5.73,1.80,0.7,27.2
2015-09-12 00:47:00,0.0,1.91605,0.00180,391.295,0.043,1.1154,0.0036,140.001,45.000,31456.79288,1.93769,396.733,34.637,45.068,45.000,0.00,0.10,-272.74,-272.80,-11,514,-920,21.9,32.9,4.9,21.9,33.5,5.1,5.73,1.91,0.7,27.2
2015-09-12 00:48:00,0.0,1.92131,0.00262,391.288,0.043,1.1221,0.0030,140.000,45.000,31455.68392,1.94340,396.765,34.627,45.068,45.000,0.00,0.10,-272.73,-272.80,-9,514,-920,21.9,33.1,4.9,21.9,33.6,5.2,5.73,1.90,0.7,27.1
2015-09-12 00:49:00,0.0,1.91437,0.00248,391.179,0.058,1.1139,0.0056,139.999,45.000,31454.53919,1.93632,396.617,34.644,45.068,45.000,0.00,0.10,-272.74,-272.81,-10,514,-920,21.9,32.8,4.8,22.0,33.5,5.2,5.73,1.82,0.7,27.1
2015-09-12 00:50:00,0.0,1.91696,0.00292,391.245,0.072,1.1151,0.0078,140.001,45.000,31455.03490,1.93847,396.681,34.669,45.068,45.000,0.00,0.09,-272.74,-272.81,-10,514,-920,21.9,33.0,4.9,22.0,33.4,5.1,5.73,1.96,0.7,27.1
2015-09-12 00:51:00,0.0,1.92207,0.00198,391.268,0.057,1.1303,0.0058,140.002,45.000,31456.73931,1.94428,396.787,34.688,45.068,45.000,0.00,0.10,-272.74,-272.80,-9,514,-920,21.9,33.4,5.1,22.0,33.8,5.3,5.73,1.78,0.7,27.1
2015-09-12 00:52:00,0.0,1.91781,0.00257,391.003,0.109,1.1279,0.0068,139.997,45.000,31455.90113,1.93996,396.509,34.701,45.068,45.000,0.00,0.09,-272.74,-272.80,-11,514,-920,21.9,33.3,5.0,22.0,33.8,5.3,5.73,2.00,0.7,27.1
2015-09-12 00:53:00,0.0,1.91546,0.00234,390.778,0.044,1.1210,0.0072,139.999,45.000,31455.14586,1.93732,396.244,34.708,45.068,45.000,0.00,0.10,-272.75,-272.80,-9,514,-920,21.9,33.1,4.9,22.0,33.7,5.3,5.73,1.73,0.8,27.2
2015-09-12 00:54:00,0.0,1.91428,0.00491,390.719,0.062,1.1290,0.0197,139.998,45.000,31453.71767,1.93661,396.226,34.692,45.068,45.000,0.00,0.10,-272.75,-272.80,-11,514,-920,21.9,33.2,5.0,22.0,33.9,5.4,5.73,2.06,0.8,27.2
2015-09-12 00:55:00,0.0,1.91125,0.00149,390.588,0.073,1.1200,0.0073,139.998,45.000,31454.88561,1.93316,396.047,34.673,45.068,45.000,0.00,0.10,-272.74,-272.80,-10,514,-920,21.9,33.0,4.9,22.0,33.5,5.2,5.73,1.69,0.8,27.2
2015-09-12 00:56:00,0.0,1.91004,0.00107,390.601,0.044,1.1135,0.0050,140.003,45.000,31455.24122,1.93160,396.021,34.639,45.068,45.000,0.00,0.09,-272.75,-272.81,-9,514,-920,21.9,32.8,4.8,22.0,33.4,5.1,5.73,2.08,0.7,27.2
2015-09-12 00:57:00,0.0,1.91013,0.00140,390.528,0.051,1.1159,0.0053,139.999,45.000,31454.39026,1.93195,395.964,34.626,45.068,45.000,0.00,0.10,-272.74,-272.80,-11,514,-920,22.0,32.8,4.9,22.0,33.4,5.2,5.73,1.69,0.8,27.2
2015-09-12 00:58:00,0.0,1.90936,0.00130,390.537,0.054,1.1161,0.0078,139.999,45.000,31453.48045,1.93116,395.972,34.621,45.068,45.000,0.00,0.09,-272.74,-272.80,-9,514,-920,22.0,32.8,4.9,22.0,33.4,5.1,5.73,2.04,0.8,27.2
2015-09-12 00:59:00,0.0,1.90878,0.00065,390.505,0.033,1.1228,0.0042,139.998,45.000,31452.99899,1.93063,395.974,34.611,45.068,45.000,0.00,0.09,-272.74,-272.80,-10,514,-920,22.0,33.0,5.0,22.0,33.5,5.2,5.73,1.76,0.8,27.2
2015-09-12 01:00:00,0.0,1.91092,0.00126,390.412,0.051,1.1257,0.0086,139.999,45.000,31451.78771,1.93288,395.895,34.623,45.068,45.000,0.00,0.10,-272.75,-272.80,-10,514,-920,22.0,33.0,5.0,22.0,33.6,5.3,5.73,1.96,0.8,27.2
2015-09-12 01:01:00,0.0,1.91121,0.00120,390.446,0.033,1.1176,0.0063,140.001,45.000,31451.59461,1.93302,395.889,34.625,45.068,45.000,0.00,0.10,-272.74,-272.80,-9,514,-920,22.0,32.8,4.9,22.0,33.5,5.2,5.73,1.84,0.8,27.2
2015-09-12 01:02:00,0.0,1.91117,0.00181,390.387,0.040,1.1134,0.0068,139.999,45.000,31451.47356,1.93279,395.805,34.624,45.068,45.000,0.00,0.10,-272.74,-272.80,-11,514,-920,22.0,32.7,4.8,22.0,33.2,5.1,5.73,1.86,0.8,27.2
2015-09-12 01:03:00,0.0,1.91287,0.00176,390.468,0.052,1.1278,0.0058,140.001,45.000,31451.96382,1.93476,395.958,34.631,45.068,45.000,0.00,0.10,-272.74,-272.81,-9,514,-920,22.0,33.1,5.0,22.0,33.6,5.3,5.73,1.94,0.8,27.2
2015-09-12 01:04:00,0.0,1.91077,0.00139,390.531,0.106,1.1260,0.0108,139.999,45.000,31451.69581,1.93285,396.013,34.681,45.068,45.000,0.00,0.10,-272.74,-272.80,-10,514,-920,22.0,33.1,5.0,22.0,33.7,5.3,5.73,1.77,0.8,27.2
2015-09-12 01:05:00,0.0,1.91211,0.00097,390.586,0.101,1.1420,0.0094,140.000,45.000,31453.35703,1.93439,396.154,34.683,45.068,45.000,0.00,0.10,-272.73,-272.80,-10,514,-920,22.0,33.6,5.2,22.0,34.0,5.4,5.73,2.02,0.8,27.2
2015-09-12 01:06:00,0.0,1.91267,0.00121,390.676,0.069,1.1373,0.0061,139.999,45.000,31454.20086,1.93478,396.219,34.679,45.068,45.000,0.00,0.10,-272.75,-272.81,-9,514,-920,22.0,33.4,5.1,22.0,34.0,5.4,5.73,1.71,0.8,27.2
2015-09-12 01:07:00,0.0,1.91209,0.00198,390.634,0.063,1.1399,0.0089,140.000,45.000,31452.36700,1.93442,396.192,34.664,45.068,44.999,0.00,0.09,-272.75,-272.80,-11,514,-920,22.0,33.4,5.2,22.0,34.1,5.5,5.73,2.06,0.8,27.2
2015-09-12 01:08:00,0.0,1.91271,0.00174,390.603,0.064,1.1382,0.0084,140.001,45.000,31454.22802,1.93501,396.152,34.630,45.068,45.000,0.00,0.10,-272.74,-272.80,-9,514,-920,22.1,33.3,5.1,22.0,33.9,5.4,5.73,1.68,0.8,27.2
2015-09-12 01:09:00,0.0,1.90902,0.00107,390.524,0.047,1.1195,0.0039,139.999,45.000,31454.68649,1.93089,395.980,34.625,45.068,45.000,0.00,0.09,-272.75,-272.80,-11,514,-920,22.1,32.7,4.9,22.0,33.5,5.2,5.73,2.07,0.8,27.3
2015-09-12 01:10:00,0.0,1.90965,0.00128,390.487,0.041,1.1254,0.0060,139.999,45.000,31452.87170,1.93158,395.966,34.624,45.068,45.000,0.00,0.10,-272.74,-272.81,-10,514,-920,22.1,32.9,5.0,22.1,33.5,5.2,5.73,1.69,0.8,27.2
2015-09-12 01:11:00,0.0,1.90857,0.00058,390.537,0.041,1.1232,0.0071,140.001,45.000,31454.01113,1.93042,396.008,34.597,45.068,45.000,0.00,0.10,-272.74,-272.80,-10,514,-920,22.1,32.8,4.9,22.1,33.5,5.2,5.73,2.03,0.9,27.2
2015-09-12 01:12:00,0.0,1.90922,0.00056,390.489,0.046,1.1214,0.0050,139.999,45.000,31451.48866,1.93102,395.951,34.567,45.069,45.001,0.00,0.10,-272.73,-272.80,-11,514,-920,22.1,32.7,4.9,22.1,33.4,5.2,5.73,1.77,0.9,27.3
2015-09-12 01:13:00,0.0,1.91117,0.00088,390.400,0.072,1.1373,0.0072,140.000,45.000,31451.99100,1.93326,395.941,34.563,45.069,45.000,0.00,0.09,-272.75,-272.80,-9,515,-920,22.1,33.2,5.2,22.1,33.7,5.3,5.73,1.93,0.9,27.2
2015-09-12 01:14:00,0.0,1.91186,0.00077,390.407,0.063,1.1390,0.0056,139.999,45.000,31450.57518,1.93409,395.956,34.563,45.069,45.000,0.00,0.10,-272.74,-272.81,-11,514,-920,22.1,33.1,5.1,22.1,33.9,5.4,5.73,1.89,0.9,27.2
2015-09-12 01:15:00,0.0,1.91079,0.00094,390.293,0.046,1.1355,0.0036,139.998,45.000,31449.56081,1.93301,395.825,34.558,45.069,45.000,0.00,0.10,-272.74,-272.80,-10,514,-920,22.1,33.0,5.1,22.1,33.8,5.4,5.73,1.80,0.9,27.3
2015-09-12 01:16:00,0.0,1.91314,0.00106,390.221,0.057,1.1464,0.0062,140.002,45.000,31451.57494,1.93545,395.805,34.546,45.068,45.000,0.00,0.10,-272.74,-272.81,-10,514,-920,22.1,33.4,5.3,22.1,33.9,5.5,5.73,2.00,0.9,27.3
2015-09-12 01:17:00,0.0,1.91038,0.00242,390.218,0.066,1.1366,0.0162,140.002,45.000,31452.29487,1.93276,395.756,34.508,45.068,45.000,0.00,0.10,-272.74,-272.81,-11,514,-920,22.2,32.9,5.1,22.1,33.9,5.5,5.73,1.72,0.9,27.2
2015-09-12 01:18:00,0.0,1.90958,0.00124,390.366,0.055,1.1264,0.0079,139.998,45.000,31449.90635,1.93144,395.845,34.552,45.069,45.000,0.00,0.09,-272.74,-272.80,-9,514,-920,22.2,32.7,5.0,22.1,33.4,5.2,5.73,2.07,0.9,27.3
2015-09-12 01:19:00,0.0,1.90896,0.00101,390.407,0.051,1.1295,0.0075,139.999,45.000,31450.69149,1.93104,395.911,34.563,45.068,45.000,0.00,0.10,-272.74,-272.80,-10,514,-920,22.2,32.7,5.0,22.1,33.5,5.3,5.73,1.68,0.9,27.2
2015-09-12 01:20:00,0.0,1.90818,0.00065,390.456,0.051,1.1217,0.0055,140.001,45.000,31453.37319,1.93002,395.916,34.565,45.068,45.000,0.00,0.09,-272.75,-272.80,-11,514,-920,22.2,32.5,5.0,22.1,33.3,5.2,5.73,2.07,0.9,27.2
2015-09-12 01:21:00,0.0,1.91030,0.00096,390.471,0.051,1.1278,0.0066,139.999,45.000,31451.68255,1.93214,395.963,34.570,45.068,45.000,0.00,0.10,-272.74,-272.80,-9,515,-920,22.2,32.7,5.0,22.1,33.4,5.3,5.73,1.71,0.9,27.3
2015-09-12 01:22:00,0.0,1.91237,0.00126,390.490,0.080,1.1376,0.0058,139.999,45.000,31451.06650,1.93459,396.036,34.589,45.068,45.000,0.00,0.10,-272.75,-272.79,-11,514,-920,22.2,32.9,5.1,22.1,33.6,5.4,5.73,2.01,0.9,27.3
2015-09-12 01:23:00,0.0,1.91184,0.00107,390.404,0.047,1.1393,0.0064,139.998,45.000,31450.56461,1.93402,395.952,34.624,45.068,45.000,0.00,0.10,-272.74,-272.81,-10,515,-920,22.2,33.0,5.2,22.1,33.7,5.4,5.73,1.79,0.9,27.3
2015-09-12 01:24:00,0.0,1.91208,0.00195,390.346,0.057,1.1293,0.0085,140.002,45.000,31451.62043,1.93413,395.849,34.625,45.068,44.999,0.00,0.10,-272.75,-272.80,-10,514,-920,22.3,32.6,5.0,22.1,33.5,5.3,5.73,1.89,1.0,27.2
2015-09-12 01:25:00,0.0,1.91005,0.00145,390.437,0.056,1.1210,0.0065,140.000,45.000,31451.77205,1.93194,395.894,34.624,45.068,44.999,0.00,0.10,-272.73,-272.80,-11,515,-920,22.3,32.3,4.9,22.2,33.2,5.2,5.73,1.92,1.0,27.3
2015-09-12 01:26:00,0.0,1.91013,0.00144,390.495,0.040,1.1213,0.0050,140.000,45.000,31451.10618,1.93212,395.956,34.618,45.068,44.999,0.00,0.10,-272.74,-272.80,-9,514,-920,22.3,32.3,4.9,22.2,33.2,5.2,5.73,1.77,1.0,27.2
2015-09-12 01:27:00,0.0,1.91039,0.00129,390.450,0.077,1.1173,0.0054,140.002,45.000,31453.16353,1.93208,395.889,34.611,45.068,45.000,0.00,0.09,-272.75,-272.81,-11,514,-920,22.3,32.2,4.9,22.2,33.0,5.2,5.73,2.03,1.0,27.3
2015-09-12 01:28:00,0.0,1.91105,0.00131,390.562,0.057,1.1217,0.0038,139.998,45.000,31451.20321,1.93288,396.023,34.607,45.068,45.000,0.00,0.10,-272.74,-272.80,-10,515,-920,22.3,32.3,4.9,22.2,33.1,5.2,5.73,1.69,1.0,27.3
2015-09-12 01:29:00,0.0,1.91486,0.00091,390.638,0.037,1.1350,0.0038,140.000,45.000,31453.13637,1.93696,396.170,34.601,45.068,45.000,0.00,0.10,-272.74,-272.80,-10,514,-922,22.3,32.7,5.1,22.2,33.4,5.3,5.73,2.07,1.0,27.3
2015-09-12 01:30:00,0.0,1.91338,0.00216,390.666,0.028,1.1316,0.0051,140.000,45.000,31452.08815,1.93537,396.181,34.583,45.068,45.000,0.00,0.10,-272.74,-272.81,-10,514,-920,22.3,32.6,5.0,22.2,33.4,5.3,5.73,1.68,1.0,27.3
2015-09-12 01:31:00,0.0,1.91660,0.00104,390.561,0.042,1.1396,0.0023,140.000,45.000,31453.57386,1.93894,396.117,34.568,45.068,45.000,0.00,0.09,-272.74,-272.80,-9,514,-921,22.3,32.8,5.2,22.2,33.6,5.4,5.73,2.06,1.0,27.3
2015-09-12 01:32:00,0.0,1.91817,0.00090,390.520,0.041,1.1459,0.0043,140.000,45.000,31452.23959,1.94054,396.106,34.583,45.068,45.000,0.00,0.10,-272.73,-272.80,-11,514,-918,22.3,33.0,5.3,22.2,33.7,5.5,5.73,1.72,1.0,27.3
2015-09-12 01:33:00,0.0,1.91261,0.00327,390.409,0.095,1.1358,0.0164,139.999,45.000,31454.40400,1.93508,395.947,34.608,45.068,45.000,0.00,0.09,-272.75,-272.80,-11,515,-917,22.3,32.5,5.0,22.2,33.6,5.4,5.73,1.98,1.0,27.3
2015-09-12 01:34:00,0.0,1.91179,0.00129,390.613,0.052,1.1336,0.0059,140.001,45.000,31452.06187,1.93384,396.134,34.610,45.068,45.000,0.00,0.10,-272.74,-272.81,-12,516,-919,22.4,32.5,5.1,22.3,33.3,5.3,5.73,1.85,1.0,27.3
2015-09-12 01:35:00,0.0,1.91270,0.00071,390.488,0.069,1.1352,0.0032,140.002,45.000,31452.61680,1.93483,396.021,34.607,45.068,45.000,0.00,0.10,-272.74,-272.80,-12,513,-920,22.4,32.5,5.1,22.3,33.4,5.4,5.73,1.82,1.0,27.3
2015-09-12 01:36:00,0.0,1.91380,0.00094,390.392,0.073,1.1373,0.0057,139.999,45.000,31453.50733,1.93606,395.935,34.604,45.068,45.000,0.00,0.09,-272.74,-272.80,-10,510,-920,22.4,32.5,5.1,22.3,33.4,5.4,5.73,2.01,1.1,27.3
2015-09-12 01:37:00,0.0,1.91487,0.00104,390.410,0.060,1.1451,0.0061,140.003,45.000,31453.16944,1.93710,395.988,34.617,45.068,45.000,0.00,0.10,-272.74,-272.81,-10,515,-919,22.4,32.8,5.2,22.3,33.6,5.5,5.73,1.70,1.0,27.3
2015-09-12 01:38:00,0.0,1.91795,0.00174,390.269,0.083,1.1513,0.0076,139.999,45.000,31451.06079,1.94044,395.880,34.613,45.068,45.000,0.00,0.09,-272.74,-272.79,-11,515,-920,22.4,32.9,5.3,22.3,33.8,5.6,5.73,2.07,1.0,27.3
2015-09-12 01:39:00,0.0,1.91276,0.00164,390.086,0.040,1.1345,0.0131,140.000,45.000,31452.53235,1.93508,395.611,34.625,45.068,45.000,0.00,0.10,-272.73,-272.80,-10,514,-920,22.4,32.3,5.1,22.3,33.5,5.4,5.73,1.68,1.1,27.3
2015-09-12 01:40:00,0.0,1.91305,0.00139,390.259,0.193,1.1420,0.0067,140.001,45.000,31449.86754,1.93537,395.815,34.625,45.068,45.000,0.00,0.09,-272.75,-272.80,-11,515,-919,22.5,32.5,5.2,22.3,33.4,5.4,5.73,2.05,1.0,27.3
2015-09-12 01:41:00,0.0,1.91304,0.00108,390.452,0.046,1.1415,0.0039,140.003,45.000,31452.16116,1.93536,396.013,34.625,45.068,45.000,0.00,0.10,-272.74,-272.81,-10,516,-920,22.5,32.5,5.2,22.3,33.4,5.4,5.73,1.73,1.1,27.3
2015-09-12 01:42:00,0.0,1.91499,0.00126,390.373,0.049,1.1442,0.0047,139.999,45.000,31453.34571,1.93738,395.952,34.637,45.068,45.000,0.00,0.10,-272.74,-272.80,-10,514,-920,22.5,32.6,5.2,22.3,33.6,5.5,5.73,1.97,1.1,27.3
2015-09-12 01:43:00,0.0,1.91429,0.00092,390.258,0.074,1.1406,0.0073,140.001,45.000,31454.37219,1.93651,395.813,34.632,45.068,45.000,0.00,0.10,-272.74,-272.81,-11,516,-920,22.5,32.5,5.2,22.3,33.4,5.4,5.73,1.83,1.1,27.3
2015-09-12 01:44:00,0.0,1.91326,0.00114,390.422,0.072,1.1320,0.0080,140.000,45.000,31453.87044,1.93537,395.936,34.625,45.068,45.000,0.00,0.10,-272.74,-272.81,-9,515,-920,22.4,32.2,5.0,22.3,33.3,5.3,5.73,1.87,1.1,27.3
2015-09-12 01:45:00,0.0,1.91644,0.00153,390.400,0.052,1.1408,0.0085,139.997,45.000,31451.73834,1.93863,395.956,34.639,45.068,45.000,0.00,0.10,-272.74,-272.81,-11,515,-920,22.5,32.6,5.2,22.3,33.3,5.4,5.73,1.93,1.1,27.3
2015-09-12 01:46:00,0.0,1.91758,0.00116,390.399,0.049,1.1466,0.0047,140.001,45.000,31451.86417,1.93999,395.987,34.654,45.068,45.000,0.00,0.10,-272.74,-272.80,-10,515,-920,22.5,32.7,5.2,22.3,33.5,5.5,5.73,1.78,1.1,27.3